Home   Weather   Brasilia   Past weeks

Flag for Brazil Past Weather in Brasilia, Distrito Federal, Brazil — Yesterday and Last 2 Weeks

Now
68 °F

Clear.


Feels Like: 68 °F
Forecast: 61 / 79 °F
Wind: 2 mph from Northeast

Location: Brasilia Aeroporto

Current Time: Dec 6, 2016 at 6:16:36 am

Latest Report: Dec 6, 2016 at 5:00 am


Visibility: 10 mi

Pressure: 30.04 "Hg (26.45 "Hg at 1091m altitude)

Humidity: 88%

Dew Point: 64 °F

Location of BrasiliaLocation

Past Weather in Brasilia — Graph

°F

Brasilia Temperature Yesterday

Maximum temperature yesterday: 82 °F (at 4:00 pm)
Minimum temperature yesterday: 66 °F (at 5:00 am)
Average temperature yesterday: 73 °F

High & Low Weather Summary for the Past Weeks

 TemperatureHumidityPressure
High88 °F (Nov 26, 3:00 pm)100% (Nov 21, 5:00 am)30.18 "Hg (Nov 21, 5:00 am)
Low37 °F (Nov 24, 1:00 pm)40% (Nov 28, 6:00 pm)29.92 "Hg (Nov 23, 6:00 pm)
Average73 °F79%30.05 "Hg
* Reported Nov 21 5:00 am — Dec 6 5:00 am, Brasilia, Weather by CustomWeather, © 2016

Note: Actual official high and low records may vary slightly from our data, if they occured in-between our weather recording intervals... More about our weather records

Advertising

Brasilia Weather History for the Previous 24 Hours

Scroll right to see more
 ConditionsComfort  
Time TempWeatherWind HumidityBarometerVisibility
5:00 am
Tue, Dec 6
68 °FClear.2 mph88%30.04 "Hg10 mi
4:00 am68 °FClear.2 mph88%30.01 "Hg10 mi
3:00 am68 °FClear.5 mph88%30.01 "Hg10 mi
2:00 am70 °FClear.No wind88%30.04 "Hg10 mi
1:00 am68 °FClear.5 mph88%30.07 "Hg10 mi
12:00 am72 °FClear.5 mph83%30.09 "Hg10 mi
11:00 pm
Mon, Dec 5
73 °FClear.5 mph83%30.09 "Hg10 mi
10:00 pm73 °FPassing clouds.7 mph83%30.07 "HgN/A
8:00 pm77 °FPassing clouds.13 mph69%30.01 "HgN/A
7:00 pm79 °FPartly sunny.13 mph65%29.98 "HgN/A
6:00 pm79 °FBroken clouds.15 mph65%29.98 "HgN/A
5:00 pm81 °FPartly sunny.16 mph62%29.95 "HgN/A
4:00 pm82 °FScattered clouds.15 mph58%29.98 "HgN/A
3:00 pm81 °FScattered clouds.18 mph51%30.01 "HgN/A
2:00 pm79 °FPartly sunny.15 mph61%30.04 "HgN/A
1:00 pm75 °FPartly sunny.18 mph69%30.07 "HgN/A
12:00 pm75 °FPartly sunny.18 mph69%30.07 "HgN/A
10:00 am72 °FPartly sunny.13 mph78%30.07 "HgN/A
9:00 am70 °FScattered clouds.12 mph83%30.04 "HgN/A
8:00 am68 °FPartly sunny.12 mph88%30.04 "HgN/A
7:00 am68 °FPartly sunny.10 mph83%30.01 "HgN/A
6:00 am68 °FPassing clouds.10 mph83%29.98 "HgN/A
Weather by CustomWeather, © 2016

See weather overviewHow to use our weather pages